Terminal Aerodrome Forecast
Issued by NWS La Crosse, WI

Home | Current Version | Previous Version | Text Only | Print | Product List | Glossary On
Versions: 1 2 3 4 5 6 7 8 9 10 11 12 13 14 15 16 17 18
000
FTUS43 KARX 281131
TAFLSE
TAF
KLSE 281131Z 2812/2912 28007KT P6SM FEW200
     FM282100 32004KT P6SM BKN110
     FM290700 02006KT P6SM BKN070
     FM291100 04006KT P6SM BKN200=

USA.gov is the U.S. government's official web portal to all federal, state and local government web resources and services.